GW7223 Weather Reports


Display with metric or nautical units.
time (UTC)temp
F
wind
direction
speed
MPH
gust
MPH
rain 1hr
in
rain 24hr
in
rain mn
in
humidity
%
barometer
mb
20260905142456 76 319 4.0 0.0 0.00 0.00 0.00 64 1013.6
20260905141955 75 334 6.0 0.0 0.00 0.00 0.00 65 1013.6
20260905141457 75 312 12.0 0.0 0.00 0.00 0.00 66 1013.6
20260905140957 74 354 11.0 0.0 0.00 0.00 0.00 67 1013.6
20260905140456 74 312 12.0 0.0 0.00 0.00 0.00 67 1013.7
20260905135955 74 354 8.0 0.0 0.00 0.00 0.00 68 1013.7
20260905135455 74 346 16.0 0.0 0.00 0.00 0.00 66 1013.7
20260905134957 74 352 10.0 0.0 0.00 0.00 0.00 66 1013.6
20260905134456 74 345 8.0 0.0 0.00 0.00 0.00 66 1013.6
20260905133955 74 74 3.0 0.0 0.00 0.00 0.00 68 1013.6
20260905133457 73 293 10.0 0.0 0.00 0.00 0.00 68 1013.6
20260905132955 72 8 10.0 0.0 0.00 0.00 0.00 69 1013.7
20260905132455 72 349 18.0 0.0 0.00 0.00 0.00 71 1013.8
20260905131956 71 38 7.0 0.0 0.00 0.00 0.00 72 1013.8
20260905131456 71 352 10.0 0.0 0.00 0.00 0.00 72 1013.8
20260905130955 71 339 6.0 0.0 0.00 0.00 0.00 73 1013.9
20260905130457 70 346 10.0 0.0 0.00 0.00 0.00 74 1013.9
20260905125957 70 347 13.0 0.0 0.00 0.00 0.00 74 1013.9
20260905125456 70 336 11.0 0.0 0.00 0.00 0.00 74 1014.1
20260905124956 70 333 6.0 0.0 0.00 0.00 0.00 74 1014.0
20260905124457 70 325 10.0 0.0 0.00 0.00 0.00 74 1014.0
20260905123957 69 346 7.0 0.0 0.00 0.00 0.00 74 1014.1
20260905123456 69 6 6.0 0.0 0.00 0.00 0.00 74 1014.0
20260905122957 69 339 10.0 0.0 0.00 0.00 0.00 74 1014.0
20260905122510 69 305 7.0 0.0 0.00 0.00 0.00 75 1014.0
20260905121957 69 345 8.0 0.0 0.00 0.00 0.00 75 1014.0
20260905121455 69 338 7.0 0.0 0.00 0.00 0.00 75 1014.0
20260905120957 69 2 4.0 0.0 0.00 0.00 0.00 76 1014.1
20260905120457 69 87 3.0 0.0 0.00 0.00 0.00 76 1014.0
20260905115956 69 4 5.0 0.0 0.00 0.00 0.00 76 1014.0
20260905115510 69 350 6.0 0.0 0.00 0.00 0.00 75 1013.9
20260905114957 70 0 4.0 0.0 0.00 0.00 0.00 75 1013.8
20260905114456 70 360 5.0 0.0 0.00 0.00 0.00 75 1013.8
20260905113956 70 49 3.0 0.0 0.00 0.00 0.00 76 1013.8
20260905113457 70 358 6.0 0.0 0.00 0.00 0.00 75 1013.8
20260905112955 70 29 2.0 0.0 0.00 0.00 0.00 75 1013.8
20260905112455 70 36 3.0 0.0 0.00 0.00 0.00 75 1013.7
20260905111955 70 347 6.0 0.0 0.00 0.00 0.00 76 1013.6
20260905111455 70 39 4.0 0.0 0.00 0.00 0.00 76 1013.6
20260905110956 70 353 4.0 0.0 0.00 0.00 0.00 76 1013.5
20260905110456 70 308 6.0 0.0 0.00 0.00 0.00 76 1013.4
20260905105955 71 28 3.0 0.0 0.00 0.00 0.00 75 1013.4
20260905105455 71 350 4.0 0.0 0.00 0.00 0.00 74 1013.3
20260905104955 71 272 2.0 0.0 0.00 0.00 0.00 74 1013.2
20260905104510 71 13 2.0 0.0 0.00 0.00 0.00 74 1013.2
20260905103956 71 19 2.0 0.0 0.00 0.00 0.00 74 1013.2
20260905103457 71 51 3.0 0.0 0.00 0.00 0.00 74 1013.0
20260905102955 71 358 7.0 0.0 0.00 0.00 0.00 74 1013.0
20260905102456 71 338 8.0 0.0 0.00 0.00 0.00 76 1012.9
20260905101955 70 295 3.0 0.0 0.00 0.00 0.00 77 1012.8
20260905101457 71 355 10.0 0.0 0.00 0.00 0.00 77 1012.9
20260905101010 71 360 8.0 0.0 0.00 0.00 0.00 77 1012.9
20260905100455 71 24 6.0 0.0 0.00 0.00 0.00 76 1012.8
20260905095956 71 218 2.0 0.0 0.00 0.00 0.00 76 1012.6
20260905095455 72 1 10.0 0.0 0.00 0.00 0.00 76 1012.6
20260905094957 72 351 9.0 0.0 0.00 0.00 0.00 75 1012.6
20260905094455 72 10 6.0 0.0 0.00 0.00 0.00 75 1012.5
20260905093955 72 326 5.0 0.0 0.00 0.00 0.00 75 1012.4
20260905093455 72 306 10.0 0.0 0.00 0.00 0.00 75 1012.3
20260905092957 72 336 13.0 0.0 0.00 0.00 0.00 76 1012.3
20260905092457 72 330 7.0 0.0 0.00 0.00 0.00 76 1012.3
20260905091955 72 357 8.0 0.0 0.00 0.00 0.00 77 1012.2
20260905091510 72 23 6.0 0.0 0.00 0.00 0.00 78 1012.2
20260905090955 72 352 9.0 0.0 0.00 0.00 0.00 79 1012.2
20260905090456 72 325 6.0 0.0 0.00 0.00 0.00 80 1012.1
20260905085956 72 147 2.0 0.0 0.00 0.00 0.00 80 1012.2
20260905085511 72 1 4.0 0.0 0.00 0.00 0.00 80 1012.2
20260905084955 72 350 9.0 0.0 0.00 0.00 0.00 80 1012.4
20260905084456 72 7 11.0 0.0 0.00 0.00 0.00 81 1012.5
20260905083957 72 334 4.0 0.0 0.00 0.00 0.00 81 1012.5
20260905083455 72 346 4.0 0.0 0.00 0.00 0.00 81 1012.6
20260905083010 72 18 2.0 0.0 0.00 0.00 0.00 80 1012.6
20260905082456 72 10 4.0 0.0 0.00 0.00 0.00 80 1012.7
20260905081956 73 321 4.0 0.0 0.00 0.00 0.00 79 1012.9
20260905081456 73 310 4.0 0.0 0.00 0.00 0.00 79 1013.0
20260905080955 73 257 11.0 0.0 0.00 0.00 0.00 78 1013.0
20260905080457 73 353 6.0 0.0 0.00 0.00 0.00 78 1013.1
20260905075955 73 325 6.0 0.0 0.00 0.00 0.00 79 1013.2
20260905075456 73 353 10.0 0.0 0.00 0.00 0.00 79 1013.3
20260905075012 73 338 3.0 0.0 0.00 0.00 0.00 79 1013.4
20260905074455 73 332 10.0 0.0 0.00 0.00 0.00 79 1013.4
20260905073955 73 305 10.0 0.0 0.00 0.00 0.00 80 1013.4
20260905073511 72 338 9.0 0.0 0.00 0.00 0.00 80 1013.6
20260905072956 72 314 4.0 0.0 0.00 0.00 0.00 80 1013.7
20260905072456 73 344 13.0 0.0 0.00 0.00 0.00 80 1013.8
20260905071955 73 56 5.0 0.0 0.00 0.00 0.00 80 1013.9
20260905071455 72 332 10.0 0.0 0.00 0.00 0.00 80 1014.0
20260905070956 72 33 13.0 0.0 0.00 0.00 0.00 80 1014.2
20260905070455 73 26 10.0 0.0 0.00 0.00 0.00 80 1014.3
20260905065956 72 324 8.0 0.0 0.00 0.00 0.00 80 1014.5
20260905065456 72 330 11.0 0.0 0.00 0.00 0.00 80 1014.6
20260905064955 72 341 10.0 0.0 0.00 0.00 0.00 80 1014.6
20260905064455 73 331 7.0 0.0 0.00 0.00 0.00 80 1014.8
20260905063956 72 320 8.0 0.0 0.00 0.00 0.00 80 1014.9
20260905063455 72 351 6.0 0.0 0.00 0.00 0.00 80 1015.0
20260905063012 72 330 7.0 0.0 0.00 0.00 0.00 80 1015.1
20260905062510 72 327 9.0 0.0 0.00 0.00 0.00 80 1015.2
20260905061955 73 38 5.0 0.0 0.00 0.00 0.00 80 1015.2
20260905061455 73 353 9.0 0.0 0.00 0.00 0.00 80 1015.2
20260905060957 73 358 9.0 0.0 0.00 0.00 0.00 80 1015.4
20260905060457 73 297 11.0 0.0 0.00 0.00 0.00 80 1015.4
20260905055957 73 338 7.0 0.0 0.00 0.00 0.00 80 1015.4
20260905055456 73 21 10.0 0.0 0.00 0.00 0.00 81 1015.4
20260905054956 73 358 6.0 0.0 0.00 0.00 0.00 81 1015.5
20260905054457 73 319 7.0 0.0 0.00 0.00 0.00 81 1015.5
20260905053957 73 27 2.0 0.0 0.00 0.00 0.00 80 1015.6
20260905053455 74 345 7.0 0.0 0.00 0.00 0.00 80 1015.7
20260905052955 74 16 4.0 0.0 0.00 0.00 0.00 80 1015.7
20260905052457 74 352 5.0 0.0 0.00 0.00 0.00 80 1015.8
20260905052003 74 23 6.0 0.0 0.00 0.00 0.00 80 1015.9
20260905051457 74 166 1.0 0.0 0.00 0.00 0.00 80 1016.0
20260905050956 74 343 6.0 0.0 0.00 0.00 0.00 80 1016.1
20260905050456 74 356 6.0 0.0 0.00 0.00 0.00 81 1016.1
20260905045955 75 89 3.0 0.0 0.00 0.00 0.00 81 1016.2
20260905045510 75 29 5.0 0.0 0.00 0.00 0.00 82 1016.2
20260905044957 75 309 3.0 0.0 0.00 0.00 0.00 82 1016.2
20260905044455 75 337 2.0 0.0 0.00 0.00 0.00 82 1016.1
20260905043957 75 302 7.0 0.0 0.00 0.00 0.00 82 1016.2
20260905043511 75 272 7.0 0.0 0.00 0.00 0.00 82 1016.3
20260905042956 75 322 6.0 0.0 0.00 0.00 0.00 82 1016.3
20260905042455 75 301 8.0 0.0 0.00 0.00 0.00 82 1016.4
20260905041955 75 242 3.0 0.0 0.00 0.00 0.00 81 1016.4
20260905041456 75 291 10.0 0.0 0.00 0.00 0.00 81 1016.4
20260905040955 75 330 3.0 0.0 0.00 0.00 0.00 78 1016.4
20260905040455 75 360 2.0 0.0 0.00 0.00 0.00 78 1016.4
20260905035955 75 60 3.0 0.0 0.00 0.00 0.00 78 1016.4
20260905035455 75 0 5.0 0.0 0.00 0.00 0.00 78 1016.3
20260905035012 75 20 3.0 0.0 0.00 0.00 0.00 78 1016.3
20260905034511 76 70 3.0 0.0 0.00 0.00 0.00 78 1016.2
20260905033957 75 126 0.0 0.0 0.00 0.00 0.00 77 1016.2
20260905033510 76 343 4.0 0.0 0.00 0.00 0.00 76 1016.1
20260905032955 76 337 3.0 0.0 0.00 0.00 0.00 77 1016.0
20260905032456 76 97 3.0 0.0 0.00 0.00 0.00 78 1016.0
20260905032012 76 37 3.0 0.0 0.00 0.00 0.00 78 1016.0
20260905031455 76 145 1.0 0.0 0.00 0.00 0.00 78 1015.8
20260905030957 76 95 3.0 0.0 0.00 0.00 0.00 77 1015.8
20260905030455 75 145 2.0 0.0 0.00 0.00 0.00 77 1015.8
20260905025956 75 76 3.0 0.0 0.00 0.00 0.00 76 1015.7
20260905025456 75 5 2.0 0.0 0.00 0.00 0.00 77 1015.8
20260905024955 75 359 4.0 0.0 0.00 0.00 0.00 77 1015.8
20260905024455 75 2 3.0 0.0 0.00 0.00 0.00 77 1015.6
20260905023957 75 357 12.0 0.0 0.00 0.00 0.00 76 1015.6
20260905023456 76 152 1.0 0.0 0.00 0.00 0.00 76 1015.5
20260905022957 76 35 2.0 0.0 0.00 0.00 0.00 76 1015.4
20260905022457 76 95 4.0 0.0 0.00 0.00 0.00 78 1015.2
20260905021955 75 37 3.0 0.0 0.00 0.00 0.00 78 1015.1
20260905021457 75 11 3.0 0.0 0.00 0.00 0.00 76 1015.0
20260905020957 76 14 6.0 0.0 0.00 0.00 0.00 76 1015.0
20260905020455 76 32 2.0 0.0 0.00 0.00 0.00 75 1014.9
20260905020011 76 35 2.0 0.0 0.00 0.00 0.00 74 1014.7
20260905015455 76 161 3.0 0.0 0.00 0.00 0.00 73 1014.6
20260905014955 76 133 3.0 0.0 0.00 0.00 0.00 72 1014.6
20260905014511 76 66 3.0 0.0 0.00 0.00 0.00 71 1014.6
20260905014010 76 89 1.0 0.0 0.00 0.00 0.00 70 1014.4
20260905013457 77 13 4.0 0.0 0.00 0.00 0.00 69 1014.2
20260905013011 77 347 8.0 0.0 0.00 0.00 0.00 65 1014.1
20260905012455 77 33 6.0 0.0 0.00 0.00 0.00 64 1014.0
20260905011956 78 345 7.0 0.0 0.00 0.00 0.00 63 1013.9
20260905011455 79 343 10.0 0.0 0.00 0.00 0.00 60 1013.8
20260905010957 83 351 6.0 0.0 0.00 0.00 0.00 54 1014.0
20260905010510 88 11 3.0 0.0 0.00 0.00 0.00 49 1013.8
20260905004957 90 107 0.0 0.0 0.05 0.05 0.00 48 1014.1
20260905004457 89 107 0.0 0.0 0.05 0.05 0.00 48 1014.0
20260905004012 89 107 0.0 0.0 0.05 0.05 0.00 48 1013.8
20260905003455 89 107 0.0 0.0 0.05 0.05 0.00 49 1013.6
20260905003011 89 107 0.0 0.0 0.05 0.05 0.00 49 1013.6
20260905002456 89 107 0.0 0.0 0.04 0.04 0.00 50 1013.4
20260905001956 89 107 0.0 0.0 0.04 0.04 0.00 51 1013.3
20260905001455 89 107 0.0 0.0 0.04 0.04 0.00 51 1013.4
20260904231456 85 104 0.0 0.0 0.00 0.00 0.00 57 1012.3
20260904230957 84 104 0.0 0.0 0.00 0.00 0.00 59 1012.5
20260904230456 83 104 0.0 0.0 0.00 0.00 0.00 60 1012.6